| time (UTC) | temp F | wind direction | speed MPH | gust MPH | rain 1hr in | rain 24hr in | rain mn in | humidity % | barometer mb |
| 20260507101507 | 40 | 312 | 0.0 | 0.0 | 0.00 | 0.15 | 0.00 | 73 | 1014.3 |
| 20260507101006 | 40 | 312 | 0.0 | 0.0 | 0.00 | 0.15 | 0.00 | 73 | 1014.3 |
| 20260507100505 | 40 | 312 | 0.0 | 0.0 | 0.00 | 0.15 | 0.00 | 73 | 1014.4 |
| 20260507100008 | 40 | 312 | 0.0 | 0.0 | 0.00 | 0.17 | 0.00 | 73 | 1014.3 |
| 20260507095508 | 40 | 312 | 0.0 | 0.0 | 0.00 | 0.17 | 0.00 | 73 | 1014.4 |
| 20260507095005 | 40 | 312 | 0.0 | 0.0 | 0.00 | 0.17 | 0.00 | 73 | 1014.4 |
| 20260507094504 | 40 | 312 | 0.0 | 0.0 | 0.00 | 0.17 | 0.00 | 73 | 1014.4 |
| 20260507094003 | 40 | 312 | 0.0 | 0.0 | 0.00 | 0.17 | 0.00 | 73 | 1014.4 |
| 20260507093502 | 40 | 312 | 0.0 | 0.0 | 0.00 | 0.17 | 0.00 | 73 | 1014.2 |
| 20260507093003 | 40 | 312 | 0.0 | 0.0 | 0.00 | 0.17 | 0.00 | 73 | 1014.3 |
| 20260507092501 | 40 | 312 | 0.0 | 0.0 | 0.00 | 0.17 | 0.00 | 73 | 1014.2 |
| 20260507092100 | 40 | 312 | 0.0 | 0.0 | 0.00 | 0.17 | 0.00 | 73 | 1014.2 |
| 20260507091601 | 41 | 312 | 0.0 | 0.0 | 0.00 | 0.17 | 0.00 | 73 | 1014.1 |
| 20260507091100 | 41 | 312 | 0.0 | 0.0 | 0.00 | 0.17 | 0.00 | 73 | 1014.0 |
| 20260507090559 | 41 | 312 | 0.0 | 0.0 | 0.00 | 0.17 | 0.00 | 73 | 1014.1 |
| 20260507090059 | 41 | 312 | 0.0 | 0.0 | 0.00 | 0.18 | 0.00 | 73 | 1014.0 |
| 20260507085558 | 41 | 312 | 0.0 | 0.0 | 0.00 | 0.18 | 0.00 | 72 | 1013.9 |
| 20260507085058 | 41 | 312 | 0.0 | 0.0 | 0.00 | 0.18 | 0.00 | 72 | 1013.9 |
| 20260507084558 | 41 | 312 | 0.0 | 0.0 | 0.00 | 0.18 | 0.00 | 72 | 1013.9 |
| 20260507084101 | 41 | 312 | 0.0 | 0.0 | 0.00 | 0.18 | 0.00 | 72 | 1013.9 |
| 20260507083558 | 41 | 312 | 0.0 | 0.0 | 0.00 | 0.18 | 0.00 | 72 | 1013.8 |
| 20260507083057 | 41 | 312 | 0.0 | 0.0 | 0.00 | 0.18 | 0.00 | 72 | 1013.7 |
| 20260507082557 | 41 | 312 | 0.0 | 0.0 | 0.00 | 0.18 | 0.00 | 72 | 1013.8 |
| 20260507082058 | 41 | 312 | 0.0 | 0.0 | 0.00 | 0.18 | 0.00 | 72 | 1013.7 |
| 20260507081602 | 41 | 312 | 0.0 | 0.0 | 0.00 | 0.18 | 0.00 | 72 | 1013.8 |
| 20260507081055 | 41 | 312 | 0.0 | 0.0 | 0.00 | 0.18 | 0.00 | 72 | 1013.8 |
| 20260507080555 | 41 | 312 | 0.0 | 0.0 | 0.00 | 0.18 | 0.00 | 72 | 1013.8 |
| 20260507080056 | 42 | 312 | 0.0 | 0.0 | 0.00 | 0.20 | 0.00 | 72 | 1013.8 |
| 20260507075554 | 42 | 312 | 0.0 | 0.0 | 0.00 | 0.20 | 0.00 | 72 | 1013.7 |
| 20260507075053 | 42 | 312 | 0.0 | 0.0 | 0.00 | 0.20 | 0.00 | 72 | 1013.9 |
| 20260507074607 | 42 | 312 | 0.0 | 0.0 | 0.00 | 0.20 | 0.00 | 72 | 1013.7 |
| 20260507074052 | 42 | 312 | 0.0 | 0.0 | 0.00 | 0.20 | 0.00 | 72 | 1013.7 |
| 20260507073552 | 42 | 312 | 0.0 | 0.0 | 0.00 | 0.20 | 0.00 | 72 | 1013.8 |
| 20260507073052 | 42 | 312 | 0.0 | 0.0 | 0.00 | 0.20 | 0.00 | 72 | 1013.8 |
| 20260507072552 | 42 | 312 | 0.0 | 0.0 | 0.00 | 0.20 | 0.00 | 72 | 1013.8 |
| 20260507072052 | 42 | 312 | 0.0 | 0.0 | 0.00 | 0.20 | 0.00 | 72 | 1013.9 |
| 20260507071550 | 42 | 312 | 0.0 | 0.0 | 0.00 | 0.20 | 0.00 | 72 | 1013.7 |
| 20260507071051 | 42 | 312 | 0.0 | 0.0 | 0.00 | 0.20 | 0.00 | 72 | 1013.7 |
| 20260507070550 | 42 | 312 | 0.0 | 0.0 | 0.00 | 0.20 | 0.00 | 72 | 1013.7 |
| 20260507070050 | 42 | 312 | 0.0 | 0.0 | 0.00 | 0.22 | 0.00 | 72 | 1013.7 |
| 20260507065549 | 42 | 312 | 0.0 | 0.0 | 0.00 | 0.22 | 0.00 | 72 | 1013.7 |
| 20260507065052 | 42 | 312 | 0.0 | 0.0 | 0.00 | 0.22 | 0.00 | 72 | 1013.8 |
| 20260507064548 | 42 | 312 | 0.0 | 0.0 | 0.00 | 0.22 | 0.00 | 72 | 1013.8 |
| 20260507064048 | 42 | 312 | 0.0 | 0.0 | 0.00 | 0.22 | 0.00 | 72 | 1013.9 |
| 20260507063546 | 43 | 312 | 0.0 | 0.0 | 0.00 | 0.22 | 0.00 | 71 | 1014.1 |
| 20260507063047 | 43 | 312 | 0.0 | 0.0 | 0.00 | 0.22 | 0.00 | 71 | 1014.0 |
| 20260507062547 | 43 | 312 | 0.0 | 0.0 | 0.00 | 0.22 | 0.00 | 71 | 1014.0 |
| 20260507062048 | 43 | 312 | 0.0 | 0.0 | 0.00 | 0.22 | 0.00 | 71 | 1013.9 |
| 20260507061545 | 43 | 312 | 0.0 | 0.0 | 0.00 | 0.22 | 0.00 | 72 | 1013.9 |
| 20260507061044 | 43 | 312 | 0.0 | 0.0 | 0.00 | 0.22 | 0.00 | 71 | 1013.7 |
| 20260507060543 | 43 | 312 | 0.0 | 0.0 | 0.00 | 0.22 | 0.00 | 71 | 1013.8 |
| 20260507060048 | 43 | 312 | 0.0 | 0.0 | 0.00 | 0.25 | 0.00 | 71 | 1013.9 |
| 20260507055544 | 43 | 312 | 0.0 | 0.0 | 0.00 | 0.25 | 0.00 | 71 | 1013.8 |
| 20260507055045 | 43 | 312 | 0.0 | 0.0 | 0.00 | 0.25 | 0.00 | 71 | 1013.8 |
| 20260507054602 | 43 | 312 | 0.0 | 0.0 | 0.00 | 0.25 | 0.00 | 71 | 1013.9 |
| 20260507054042 | 43 | 312 | 0.0 | 0.0 | 0.00 | 0.25 | 0.00 | 71 | 1013.9 |
| 20260507053545 | 43 | 312 | 0.0 | 0.0 | 0.00 | 0.25 | 0.00 | 71 | 1014.0 |
| 20260507053048 | 44 | 312 | 0.0 | 0.0 | 0.00 | 0.25 | 0.00 | 71 | 1014.0 |
| 20260507052540 | 44 | 312 | 0.0 | 0.0 | 0.00 | 0.25 | 0.00 | 71 | 1013.9 |
| 20260507052041 | 44 | 312 | 0.0 | 0.0 | 0.00 | 0.25 | 0.00 | 71 | 1013.8 |
| 20260507051540 | 44 | 312 | 0.0 | 0.0 | 0.00 | 0.25 | 0.00 | 71 | 1013.7 |
| 20260507051038 | 44 | 312 | 0.0 | 0.0 | 0.00 | 0.25 | 0.00 | 71 | 1013.8 |
| 20260507050538 | 44 | 312 | 0.0 | 0.0 | 0.00 | 0.25 | 0.00 | 70 | 1013.9 |
| 20260507050037 | 44 | 312 | 0.0 | 0.0 | 0.00 | 0.27 | 0.00 | 70 | 1014.0 |
| 20260507045538 | 44 | 312 | 0.0 | 0.0 | 0.00 | 0.27 | 0.00 | 70 | 1013.9 |
| 20260507045035 | 44 | 312 | 0.0 | 0.0 | 0.00 | 0.27 | 0.00 | 70 | 1014.0 |
| 20260507044539 | 44 | 312 | 0.0 | 0.0 | 0.00 | 0.27 | 0.00 | 70 | 1014.0 |
| 20260507044038 | 44 | 312 | 0.0 | 0.0 | 0.00 | 0.27 | 0.00 | 70 | 1014.1 |
| 20260507043535 | 45 | 312 | 0.0 | 0.0 | 0.00 | 0.27 | 0.00 | 70 | 1014.0 |
| 20260507043034 | 45 | 312 | 0.0 | 0.0 | 0.00 | 0.27 | 0.00 | 70 | 1013.9 |
| 20260507042534 | 45 | 312 | 0.0 | 0.0 | 0.00 | 0.27 | 0.00 | 70 | 1013.9 |
| 20260507042032 | 45 | 312 | 0.0 | 0.0 | 0.00 | 0.27 | 0.00 | 70 | 1013.8 |
| 20260507041533 | 45 | 312 | 0.0 | 0.0 | 0.00 | 0.27 | 0.00 | 70 | 1013.9 |
| 20260507041032 | 45 | 312 | 0.0 | 0.0 | 0.00 | 0.27 | 0.00 | 70 | 1013.8 |
| 20260507040532 | 45 | 312 | 0.0 | 0.0 | 0.00 | 0.27 | 0.00 | 69 | 1013.8 |
| 20260507040030 | 46 | 312 | 0.0 | 0.0 | 0.00 | 0.28 | 0.27 | 69 | 1013.7 |
| 20260507035533 | 46 | 312 | 0.0 | 0.0 | 0.00 | 0.28 | 0.27 | 69 | 1013.7 |
| 20260507035030 | 46 | 312 | 0.0 | 0.0 | 0.00 | 0.28 | 0.27 | 69 | 1013.9 |
| 20260507034529 | 46 | 312 | 0.0 | 0.0 | 0.00 | 0.28 | 0.27 | 69 | 1013.8 |
| 20260507034030 | 46 | 312 | 0.0 | 0.0 | 0.00 | 0.28 | 0.27 | 69 | 1013.8 |
| 20260507033529 | 46 | 312 | 0.0 | 0.0 | 0.00 | 0.28 | 0.27 | 68 | 1014.0 |
| 20260507033029 | 46 | 312 | 0.0 | 0.0 | 0.00 | 0.28 | 0.27 | 68 | 1013.9 |
| 20260507032529 | 47 | 312 | 0.0 | 0.0 | 0.00 | 0.28 | 0.27 | 68 | 1013.9 |
| 20260507032028 | 47 | 312 | 0.0 | 0.0 | 0.00 | 0.28 | 0.27 | 68 | 1013.8 |
| 20260507031528 | 47 | 312 | 0.0 | 0.0 | 0.00 | 0.28 | 0.27 | 68 | 1013.8 |
| 20260507031032 | 47 | 312 | 0.0 | 0.0 | 0.00 | 0.28 | 0.27 | 68 | 1013.8 |
| 20260507030531 | 47 | 312 | 0.0 | 0.0 | 0.00 | 0.28 | 0.27 | 67 | 1013.9 |
| 20260507030027 | 48 | 312 | 0.0 | 0.0 | 0.00 | 0.32 | 0.27 | 67 | 1013.9 |
| 20260507025527 | 48 | 312 | 0.0 | 0.0 | 0.00 | 0.32 | 0.27 | 67 | 1014.0 |
| 20260507025028 | 48 | 312 | 0.0 | 0.0 | 0.00 | 0.32 | 0.27 | 66 | 1013.9 |
| 20260507024527 | 48 | 312 | 0.0 | 0.0 | 0.00 | 0.32 | 0.27 | 66 | 1013.9 |
| 20260507024026 | 49 | 312 | 0.0 | 0.0 | 0.00 | 0.32 | 0.27 | 66 | 1013.9 |
| 20260507023526 | 49 | 312 | 0.0 | 0.0 | 0.00 | 0.32 | 0.27 | 65 | 1013.8 |
| 20260507023028 | 49 | 312 | 0.0 | 0.0 | 0.00 | 0.32 | 0.27 | 65 | 1013.7 |
| 20260507022530 | 49 | 312 | 0.0 | 0.0 | 0.00 | 0.32 | 0.27 | 64 | 1013.7 |
| 20260507022027 | 50 | 312 | 0.0 | 0.0 | 0.00 | 0.32 | 0.27 | 64 | 1013.7 |
| 20260507021524 | 50 | 312 | 0.0 | 0.0 | 0.00 | 0.32 | 0.27 | 63 | 1013.7 |
| 20260507021024 | 50 | 312 | 0.0 | 0.0 | 0.00 | 0.32 | 0.27 | 63 | 1013.6 |
| 20260507020524 | 51 | 312 | 0.0 | 0.0 | 0.01 | 0.32 | 0.27 | 62 | 1013.6 |
| 20260507020025 | 51 | 312 | 0.0 | 0.0 | 0.01 | 0.40 | 0.27 | 62 | 1013.6 |
| 20260507015525 | 51 | 312 | 0.0 | 0.0 | 0.01 | 0.40 | 0.27 | 61 | 1013.6 |
| 20260507015023 | 51 | 312 | 0.0 | 0.0 | 0.01 | 0.40 | 0.27 | 61 | 1013.5 |
| 20260507014531 | 52 | 312 | 0.0 | 0.0 | 0.01 | 0.40 | 0.27 | 61 | 1013.6 |
| 20260507014022 | 52 | 312 | 0.0 | 0.0 | 0.01 | 0.40 | 0.27 | 61 | 1013.5 |
| 20260507013521 | 52 | 312 | 0.0 | 0.0 | 0.01 | 0.40 | 0.27 | 60 | 1013.4 |
| 20260507013021 | 52 | 312 | 0.0 | 0.0 | 0.01 | 0.40 | 0.27 | 59 | 1013.3 |
| 20260507012521 | 53 | 312 | 0.0 | 0.0 | 0.01 | 0.40 | 0.27 | 59 | 1013.2 |
| 20260507012022 | 53 | 312 | 0.0 | 0.0 | 0.01 | 0.40 | 0.27 | 59 | 1013.2 |
| 20260507011520 | 53 | 312 | 0.0 | 0.0 | 0.01 | 0.40 | 0.27 | 58 | 1013.0 |
| 20260507011019 | 53 | 312 | 0.0 | 0.0 | 0.01 | 0.40 | 0.27 | 58 | 1013.0 |
| 20260507010519 | 54 | 312 | 0.0 | 0.0 | 0.00 | 0.39 | 0.26 | 57 | 1013.0 |
| 20260507010019 | 54 | 312 | 0.0 | 0.0 | 0.00 | 0.40 | 0.26 | 57 | 1013.0 |
| 20260507005518 | 54 | 312 | 0.0 | 0.0 | 0.00 | 0.40 | 0.26 | 56 | 1013.0 |
| 20260507005020 | 54 | 312 | 0.0 | 0.0 | 0.00 | 0.40 | 0.26 | 54 | 1012.9 |
| 20260507004520 | 54 | 312 | 0.0 | 0.0 | 0.00 | 0.40 | 0.26 | 54 | 1012.9 |
| 20260507004023 | 54 | 312 | 0.0 | 0.0 | 0.00 | 0.40 | 0.26 | 54 | 1012.9 |
| 20260507003516 | 54 | 312 | 0.0 | 0.0 | 0.00 | 0.40 | 0.26 | 54 | 1012.9 |
| 20260507003019 | 55 | 312 | 0.0 | 0.0 | 0.00 | 0.40 | 0.26 | 55 | 1012.8 |
| 20260507002516 | 55 | 312 | 0.0 | 0.0 | 0.00 | 0.40 | 0.26 | 55 | 1012.9 |
| 20260507002015 | 55 | 314 | 0.0 | 0.0 | 0.00 | 0.40 | 0.26 | 55 | 1012.7 |
| 20260507001521 | 55 | 314 | 0.0 | 3.0 | 0.00 | 0.40 | 0.26 | 54 | 1012.8 |
| 20260507001017 | 55 | 314 | 0.0 | 3.0 | 0.00 | 0.40 | 0.26 | 52 | 1012.6 |
| 20260507000514 | 55 | 320 | 0.0 | 2.0 | 0.00 | 0.40 | 0.26 | 54 | 1012.7 |
| 20260507000016 | 56 | 320 | 0.0 | 2.0 | 0.00 | 0.42 | 0.26 | 55 | 1012.6 |
| 20260506235514 | 56 | 320 | 0.0 | 3.0 | 0.00 | 0.42 | 0.26 | 54 | 1012.5 |
| 20260506235015 | 56 | 320 | 1.0 | 3.0 | 0.00 | 0.42 | 0.26 | 55 | 1012.3 |
| 20260506234515 | 56 | 323 | 1.0 | 2.0 | 0.00 | 0.42 | 0.26 | 55 | 1012.3 |
| 20260506234013 | 56 | 319 | 0.0 | 2.0 | 0.00 | 0.42 | 0.26 | 54 | 1012.4 |
| 20260506233513 | 56 | 319 | 0.0 | 2.0 | 0.00 | 0.42 | 0.26 | 54 | 1012.4 |
| 20260506233012 | 56 | 319 | 0.0 | 2.0 | 0.00 | 0.42 | 0.26 | 52 | 1012.1 |
| 20260506232513 | 57 | 319 | 0.0 | 2.0 | 0.00 | 0.42 | 0.26 | 52 | 1012.2 |
| 20260506232012 | 57 | 319 | 0.0 | 0.0 | 0.00 | 0.42 | 0.26 | 53 | 1012.1 |
| 20260506231512 | 57 | 319 | 0.0 | 3.0 | 0.00 | 0.42 | 0.26 | 53 | 1011.9 |
| 20260506231012 | 57 | 319 | 1.0 | 3.0 | 0.00 | 0.42 | 0.26 | 52 | 1011.7 |
| 20260506230511 | 57 | 326 | 0.0 | 2.0 | 0.00 | 0.42 | 0.26 | 51 | 1011.8 |
| 20260506230012 | 57 | 332 | 0.0 | 2.0 | 0.01 | 0.42 | 0.26 | 52 | 1011.9 |
| 20260506225515 | 57 | 332 | 0.0 | 2.0 | 0.01 | 0.42 | 0.26 | 50 | 1012.0 |
| 20260506225012 | 57 | 333 | 1.0 | 2.0 | 0.01 | 0.42 | 0.26 | 51 | 1012.2 |
| 20260506224511 | 57 | 334 | 0.0 | 2.0 | 0.01 | 0.42 | 0.26 | 50 | 1011.9 |
| 20260506224015 | 57 | 336 | 1.0 | 3.0 | 0.01 | 0.42 | 0.26 | 50 | 1012.1 |
| 20260506223511 | 57 | 336 | 0.0 | 3.0 | 0.01 | 0.42 | 0.26 | 50 | 1012.1 |
| 20260506223011 | 58 | 337 | 1.0 | 3.0 | 0.01 | 0.42 | 0.26 | 49 | 1012.3 |
| 20260506222511 | 58 | 5 | 0.0 | 3.0 | 0.01 | 0.42 | 0.26 | 49 | 1012.1 |
| 20260506222010 | 58 | 5 | 0.0 | 3.0 | 0.01 | 0.42 | 0.26 | 50 | 1012.3 |
| 20260506221510 | 58 | 28 | 0.0 | 0.0 | 0.01 | 0.42 | 0.26 | 50 | 1012.2 |
| 20260506221012 | 58 | 42 | 0.0 | 0.0 | 0.01 | 0.42 | 0.26 | 49 | 1012.5 |
| 20260506220509 | 58 | 44 | 0.0 | 0.0 | 0.01 | 0.42 | 0.26 | 49 | 1012.6 |
| 20260506220018 | 58 | 44 | 0.0 | 2.0 | 0.00 | 0.47 | 0.25 | 48 | 1012.5 |
| 20260506215511 | 58 | 44 | 0.0 | 2.0 | 0.00 | 0.47 | 0.25 | 49 | 1012.3 |
| 20260506215008 | 58 | 45 | 0.0 | 2.0 | 0.00 | 0.47 | 0.25 | 51 | 1012.4 |
| 20260506214508 | 58 | 46 | 0.0 | 0.0 | 0.00 | 0.47 | 0.25 | 51 | 1012.3 |
| 20260506214008 | 58 | 46 | 0.0 | 1.0 | 0.00 | 0.47 | 0.25 | 50 | 1012.3 |
| 20260506213507 | 59 | 46 | 0.0 | 2.0 | 0.00 | 0.47 | 0.25 | 48 | 1012.3 |
| 20260506213008 | 59 | 46 | 0.0 | 2.0 | 0.00 | 0.47 | 0.25 | 48 | 1012.2 |
| 20260506212507 | 59 | 46 | 0.0 | 2.0 | 0.00 | 0.47 | 0.25 | 51 | 1012.1 |
| 20260506212007 | 59 | 46 | 0.0 | 2.0 | 0.00 | 0.47 | 0.25 | 48 | 1012.1 |
| 20260506211509 | 59 | 51 | 0.0 | 3.0 | 0.00 | 0.47 | 0.25 | 50 | 1011.9 |
| 20260506211006 | 59 | 51 | 1.0 | 3.0 | 0.00 | 0.47 | 0.25 | 48 | 1011.9 |
| 20260506210506 | 59 | 329 | 0.0 | 3.0 | 0.00 | 0.47 | 0.25 | 48 | 1011.7 |
| 20260506210009 | 59 | 329 | 0.0 | 3.0 | 0.00 | 0.56 | 0.25 | 46 | 1011.8 |
| 20260506205505 | 59 | 315 | 1.0 | 2.0 | 0.00 | 0.56 | 0.25 | 47 | 1011.9 |
| 20260506205005 | 59 | 323 | 0.0 | 3.0 | 0.01 | 0.56 | 0.25 | 48 | 1011.8 |
| 20260506204506 | 59 | 323 | 0.0 | 3.0 | 0.01 | 0.56 | 0.25 | 48 | 1011.9 |
| 20260506204006 | 59 | 342 | 0.0 | 4.0 | 0.01 | 0.56 | 0.25 | 47 | 1011.7 |
| 20260506203508 | 59 | 355 | 1.0 | 4.0 | 0.01 | 0.56 | 0.25 | 47 | 1012.0 |
| 20260506203008 | 59 | 355 | 0.0 | 0.0 | 0.01 | 0.56 | 0.25 | 48 | 1012.0 |
| 20260506202505 | 59 | 355 | 0.0 | 0.0 | 0.01 | 0.56 | 0.25 | 47 | 1011.9 |
| 20260506202004 | 59 | 355 | 0.0 | 0.0 | 0.01 | 0.56 | 0.25 | 44 | 1011.9 |
| 20260506201504 | 59 | 344 | 0.0 | 0.0 | 0.01 | 0.56 | 0.25 | 48 | 1011.9 |
| 20260506201006 | 60 | 344 | 0.0 | 0.0 | 0.01 | 0.56 | 0.25 | 45 | 1011.9 |
| 20260506200505 | 60 | 360 | 0.0 | 0.0 | 0.01 | 0.56 | 0.25 | 47 | 1011.8 |
| 20260506200004 | 60 | 5 | 0.0 | 0.0 | 0.01 | 0.67 | 0.25 | 48 | 1011.9 |
| 20260506195503 | 60 | 5 | 0.0 | 0.0 | 0.01 | 0.67 | 0.25 | 46 | 1012.0 |
| 20260506195003 | 60 | 5 | 0.0 | 0.0 | 0.00 | 0.66 | 0.24 | 45 | 1011.9 |
| 20260506194505 | 61 | 329 | 0.0 | 0.0 | 0.00 | 0.66 | 0.24 | 48 | 1011.8 |
| 20260506194003 | 61 | 307 | 0.0 | 0.0 | 0.00 | 0.66 | 0.24 | 50 | 1011.8 |
| 20260506193502 | 61 | 311 | 0.0 | 0.0 | 0.01 | 0.66 | 0.24 | 50 | 1011.8 |
| 20260506193003 | 61 | 311 | 0.0 | 0.0 | 0.01 | 0.66 | 0.24 | 47 | 1011.6 |
| 20260506192506 | 61 | 330 | 0.0 | 0.0 | 0.01 | 0.66 | 0.24 | 45 | 1011.5 |
| 20260506192002 | 61 | 104 | 0.0 | 0.0 | 0.01 | 0.66 | 0.24 | 47 | 1011.4 |
| 20260506191502 | 62 | 309 | 0.0 | 0.0 | 0.01 | 0.66 | 0.24 | 47 | 1011.5 |
| 20260506191002 | 62 | 309 | 0.0 | 2.0 | 0.01 | 0.66 | 0.24 | 44 | 1011.5 |
| 20260506190502 | 62 | 306 | 0.0 | 4.0 | 0.01 | 0.66 | 0.24 | 44 | 1011.5 |
| 20260506190002 | 62 | 303 | 1.0 | 4.0 | 0.01 | 0.66 | 0.24 | 44 | 1011.4 |
| 20260506185501 | 62 | 303 | 0.0 | 3.0 | 0.01 | 0.66 | 0.24 | 45 | 1011.4 |
| 20260506185001 | 62 | 15 | 0.0 | 3.0 | 0.01 | 0.66 | 0.24 | 44 | 1011.4 |
| 20260506184501 | 63 | 328 | 1.0 | 4.0 | 0.02 | 0.66 | 0.24 | 42 | 1011.4 |
| 20260506184001 | 63 | 320 | 0.0 | 4.0 | 0.02 | 0.66 | 0.24 | 43 | 1011.4 |
| 20260506183601 | 63 | 311 | 2.0 | 4.0 | 0.01 | 0.65 | 0.23 | 44 | 1011.4 |
| 20260506183059 | 63 | 312 | 2.0 | 4.0 | 0.01 | 0.65 | 0.23 | 44 | 1011.3 |
| 20260506182559 | 62 | 277 | 1.0 | 3.0 | 0.01 | 0.65 | 0.23 | 48 | 1011.3 |
| 20260506182058 | 62 | 312 | 0.0 | 4.0 | 0.01 | 0.65 | 0.23 | 46 | 1011.4 |
| 20260506181558 | 62 | 324 | 1.0 | 4.0 | 0.01 | 0.65 | 0.23 | 41 | 1011.5 |
| 20260506181057 | 63 | 102 | 1.0 | 4.0 | 0.01 | 0.65 | 0.23 | 46 | 1011.4 |
| 20260506180557 | 62 | 303 | 1.0 | 4.0 | 0.01 | 0.65 | 0.23 | 47 | 1011.6 |
| 20260506180105 | 62 | 103 | 1.0 | 3.0 | 0.02 | 0.65 | 0.23 | 46 | 1011.7 |
| 20260506175555 | 61 | 349 | 0.0 | 0.0 | 0.02 | 0.65 | 0.23 | 49 | 1011.7 |
| 20260506175058 | 61 | 355 | 0.0 | 4.0 | 0.02 | 0.65 | 0.23 | 46 | 1011.8 |
| 20260506174556 | 61 | 355 | 1.0 | 5.0 | 0.01 | 0.64 | 0.22 | 46 | 1011.8 |
| 20260506174053 | 61 | 18 | 1.0 | 5.0 | 0.01 | 0.64 | 0.22 | 49 | 1011.7 |
| 20260506173553 | 61 | 59 | 0.0 | 3.0 | 0.01 | 0.64 | 0.22 | 49 | 1011.9 |
| 20260506173056 | 61 | 99 | 0.0 | 3.0 | 0.01 | 0.64 | 0.22 | 49 | 1011.7 |
| 20260506172551 | 60 | 101 | 1.0 | 3.0 | 0.01 | 0.64 | 0.22 | 49 | 1012.1 |
| 20260506172049 | 60 | 339 | 1.0 | 3.0 | 0.01 | 0.64 | 0.22 | 52 | 1012.0 |
| 20260506171551 | 60 | 113 | 0.0 | 3.0 | 0.02 | 0.64 | 0.22 | 50 | 1011.9 |
| 20260506171052 | 60 | 116 | 0.0 | 3.0 | 0.02 | 0.64 | 0.22 | 51 | 1012.1 |
| 20260506170548 | 60 | 302 | 1.0 | 3.0 | 0.02 | 0.64 | 0.22 | 52 | 1012.0 |
| 20260506170100 | 60 | 216 | 1.0 | 3.0 | 0.01 | 0.63 | 0.21 | 54 | 1012.0 |
| 20260506165546 | 60 | 178 | 1.0 | 3.0 | 0.01 | 0.63 | 0.21 | 57 | 1012.0 |
| 20260506165045 | 59 | 174 | 1.0 | 7.0 | 0.01 | 0.63 | 0.21 | 57 | 1012.2 |
| 20260506164545 | 58 | 286 | 0.0 | 7.0 | 0.01 | 0.63 | 0.21 | 52 | 1012.2 |
| 20260506164047 | 58 | 302 | 0.0 | 5.0 | 0.01 | 0.63 | 0.21 | 53 | 1012.0 |
| 20260506163546 | 57 | 305 | 2.0 | 5.0 | 0.01 | 0.63 | 0.21 | 55 | 1012.1 |
| 20260506163104 | 57 | 199 | 1.0 | 5.0 | 0.01 | 0.63 | 0.21 | 60 | 1011.9 |
| 20260506162543 | 56 | 113 | 0.0 | 7.0 | 0.02 | 0.63 | 0.21 | 58 | 1012.0 |
| 20260506162044 | 56 | 292 | 3.0 | 7.0 | 0.02 | 0.63 | 0.21 | 58 | 1012.0 |
| 20260506161540 | 56 | 198 | 0.0 | 4.0 | 0.01 | 0.62 | 0.20 | 61 | 1012.2 |
| 20260506161042 | 55 | 309 | 1.0 | 4.0 | 0.01 | 0.62 | 0.20 | 61 | 1012.1 |
| 20260506160539 | 55 | 355 | 1.0 | 3.0 | 0.01 | 0.62 | 0.20 | 63 | 1012.0 |
| 20260506160038 | 54 | 109 | 0.0 | 3.0 | 0.01 | 0.62 | 0.20 | 63 | 1011.9 |
| 20260506155539 | 54 | 135 | 0.0 | 4.0 | 0.01 | 0.62 | 0.20 | 65 | 1011.8 |
| 20260506155038 | 53 | 255 | 0.0 | 4.0 | 0.01 | 0.62 | 0.20 | 67 | 1011.8 |
| 20260506154548 | 53 | 292 | 1.0 | 4.0 | 0.01 | 0.62 | 0.20 | 68 | 1011.7 |
| 20260506154036 | 52 | 111 | 1.0 | 4.0 | 0.01 | 0.62 | 0.20 | 69 | 1011.7 |
| 20260506153536 | 52 | 306 | 1.0 | 4.0 | 0.02 | 0.62 | 0.20 | 68 | 1011.9 |
| 20260506153041 | 51 | 51 | 1.0 | 2.0 | 0.02 | 0.62 | 0.20 | 70 | 1012.1 |
| 20260506152535 | 51 | 52 | 0.0 | 3.0 | 0.01 | 0.61 | 0.19 | 71 | 1012.3 |
| 20260506152033 | 51 | 67 | 0.0 | 4.0 | 0.01 | 0.61 | 0.19 | 72 | 1012.1 |
| 20260506151532 | 51 | 75 | 0.0 | 4.0 | 0.01 | 0.61 | 0.19 | 72 | 1011.7 |
| 20260506151031 | 50 | 287 | 0.0 | 3.0 | 0.01 | 0.61 | 0.19 | 74 | 1011.7 |
| 20260506150530 | 50 | 266 | 0.0 | 3.0 | 0.01 | 0.61 | 0.19 | 76 | 1011.7 |
| 20260506150030 | 50 | 256 | 1.0 | 5.0 | 0.01 | 0.61 | 0.19 | 78 | 1011.8 |
| 20260506145532 | 50 | 241 | 0.0 | 5.0 | 0.01 | 0.61 | 0.19 | 80 | 1011.4 |
| 20260506145027 | 50 | 323 | 0.0 | 4.0 | 0.02 | 0.61 | 0.19 | 81 | 1011.2 |
| 20260506144527 | 50 | 307 | 0.0 | 4.0 | 0.02 | 0.61 | 0.19 | 84 | 1011.1 |
| 20260506144026 | 49 | 324 | 0.0 | 4.0 | 0.02 | 0.61 | 0.19 | 84 | 1011.0 |
| 20260506143529 | 49 | 52 | 0.0 | 4.0 | 0.01 | 0.60 | 0.18 | 86 | 1011.0 |
| 20260506143033 | 49 | 290 | 0.0 | 2.0 | 0.01 | 0.60 | 0.18 | 86 | 1010.8 |
| 20260506142525 | 49 | 290 | 1.0 | 2.0 | 0.01 | 0.60 | 0.18 | 86 | 1010.9 |
| 20260506142024 | 49 | 288 | 0.0 | 2.0 | 0.01 | 0.60 | 0.18 | 86 | 1011.0 |
| 20260506141523 | 49 | 329 | 0.0 | 2.0 | 0.01 | 0.60 | 0.18 | 86 | 1010.9 |
| 20260506141022 | 48 | 331 | 0.0 | 2.0 | 0.01 | 0.60 | 0.18 | 86 | 1010.8 |
| 20260506140525 | 48 | 331 | 1.0 | 2.0 | 0.01 | 0.60 | 0.18 | 86 | 1010.7 |
| 20260506140022 | 48 | 331 | 0.0 | 0.0 | 0.01 | 0.60 | 0.18 | 86 | 1010.8 |
| 20260506135522 | 48 | 331 | 0.0 | 0.0 | 0.02 | 0.60 | 0.18 | 86 | 1010.8 |
| 20260506135022 | 47 | 331 | 0.0 | 0.0 | 0.01 | 0.59 | 0.17 | 86 | 1010.8 |
| 20260506134520 | 47 | 331 | 0.0 | 0.0 | 0.01 | 0.59 | 0.17 | 86 | 1010.8 |
| 20260506134022 | 47 | 331 | 0.0 | 5.0 | 0.01 | 0.59 | 0.17 | 86 | 1010.7 |
| 20260506133520 | 47 | 331 | 2.0 | 5.0 | 0.01 | 0.59 | 0.17 | 86 | 1010.7 |
| 20260506133020 | 47 | 313 | 0.0 | 3.0 | 0.01 | 0.59 | 0.17 | 86 | 1010.8 |
| 20260506132518 | 47 | 313 | 0.0 | 3.0 | 0.01 | 0.59 | 0.17 | 86 | 1010.6 |
| 20260506132017 | 46 | 319 | 0.0 | 0.0 | 0.01 | 0.59 | 0.17 | 86 | 1010.2 |
| 20260506131518 | 46 | 321 | 0.0 | 0.0 | 0.01 | 0.59 | 0.17 | 86 | 1010.2 |
| 20260506131019 | 46 | 321 | 0.0 | 0.0 | 0.01 | 0.59 | 0.17 | 86 | 1010.2 |
| 20260506130519 | 47 | 321 | 0.0 | 0.0 | 0.02 | 0.59 | 0.17 | 86 | 1010.3 |
| 20260506130016 | 46 | 321 | 0.0 | 0.0 | 0.02 | 0.59 | 0.17 | 86 | 1010.2 |
| 20260506125515 | 46 | 321 | 0.0 | 0.0 | 0.01 | 0.57 | 0.16 | 86 | 1010.3 |
| 20260506125015 | 46 | 321 | 0.0 | 0.0 | 0.01 | 0.57 | 0.16 | 86 | 1010.5 |
| 20260506124515 | 46 | 320 | 0.0 | 0.0 | 0.01 | 0.57 | 0.16 | 85 | 1010.3 |
| 20260506124015 | 46 | 320 | 0.0 | 0.0 | 0.01 | 0.57 | 0.16 | 85 | 1010.3 |
| 20260506123514 | 46 | 320 | 0.0 | 0.0 | 0.01 | 0.57 | 0.16 | 85 | 1010.3 |
| 20260506123013 | 46 | 321 | 0.0 | 0.0 | 0.01 | 0.57 | 0.16 | 85 | 1010.4 |
| 20260506122511 | 46 | 321 | 0.0 | 0.0 | 0.01 | 0.57 | 0.16 | 85 | 1010.0 |
| 20260506122010 | 45 | 321 | 0.0 | 0.0 | 0.02 | 0.57 | 0.16 | 85 | 1009.9 |
| 20260506121510 | 45 | 321 | 0.0 | 0.0 | 0.02 | 0.57 | 0.16 | 85 | 1010.2 |
| 20260506121009 | 45 | 321 | 0.0 | 0.0 | 0.02 | 0.57 | 0.16 | 85 | 1010.0 |
| 20260506120509 | 45 | 321 | 0.0 | 0.0 | 0.01 | 0.56 | 0.15 | 85 | 1009.7 |
| 20260506120008 | 45 | 321 | 0.0 | 0.0 | 0.01 | 0.59 | 0.15 | 85 | 1009.6 |
| 20260506115509 | 45 | 321 | 0.0 | 0.0 | 0.01 | 0.59 | 0.15 | 84 | 1009.4 |
| 20260506115006 | 45 | 321 | 0.0 | 0.0 | 0.01 | 0.59 | 0.15 | 84 | 1009.2 |
| 20260506114509 | 45 | 321 | 0.0 | 0.0 | 0.02 | 0.59 | 0.15 | 84 | 1009.2 |
| 20260506114005 | 45 | 321 | 0.0 | 0.0 | 0.02 | 0.59 | 0.15 | 84 | 1009.0 |
| 20260506113504 | 45 | 321 | 0.0 | 0.0 | 0.02 | 0.59 | 0.15 | 84 | 1008.8 |
| 20260506113004 | 45 | 321 | 0.0 | 0.0 | 0.02 | 0.59 | 0.15 | 84 | 1009.2 |
| 20260506112503 | 45 | 321 | 0.0 | 0.0 | 0.02 | 0.59 | 0.15 | 84 | 1009.1 |
| 20260506112001 | 45 | 321 | 0.0 | 0.0 | 0.01 | 0.57 | 0.14 | 84 | 1008.6 |
| 20260506111501 | 45 | 321 | 0.0 | 0.0 | 0.01 | 0.57 | 0.14 | 84 | 1008.8 |
| 20260506111100 | 45 | 321 | 0.0 | 0.0 | 0.01 | 0.57 | 0.14 | 84 | 1008.7 |
| 20260506110600 | 45 | 321 | 0.0 | 0.0 | 0.02 | 0.57 | 0.14 | 84 | 1008.9 |
| 20260506110104 | 45 | 321 | 0.0 | 0.0 | 0.02 | 0.61 | 0.14 | 84 | 1008.8 |
| 20260506105558 | 45 | 321 | 0.0 | 0.0 | 0.02 | 0.61 | 0.14 | 84 | 1008.5 |
| 20260506105057 | 45 | 321 | 0.0 | 0.0 | 0.02 | 0.61 | 0.14 | 84 | 1008.1 |
| 20260506104557 | 45 | 321 | 0.0 | 0.0 | 0.01 | 0.60 | 0.13 | 83 | 1007.9 |
| 20260506104057 | 45 | 321 | 0.0 | 0.0 | 0.01 | 0.60 | 0.13 | 83 | 1008.1 |
| 20260506103556 | 45 | 321 | 0.0 | 0.0 | 0.02 | 0.60 | 0.13 | 83 | 1008.3 |
| 20260506103056 | 45 | 321 | 0.0 | 0.0 | 0.02 | 0.60 | 0.13 | 83 | 1008.1 |
| 20260506102556 | 45 | 321 | 0.0 | 0.0 | 0.02 | 0.60 | 0.13 | 83 | 1008.3 |
| 20260506102055 | 45 | 315 | 0.0 | 0.0 | 0.02 | 0.60 | 0.13 | 83 | 1008.3 |